Sioux City, IA

8:55 AM CDT on April 21, 2018 (GMT -0500)
Sioux Gateway

Weather History for KSUX - August, 2011

Change the Weather History Date:

Wednesday, August 24, 2011

  Actual Average Record
Temperature  
Mean Temperature 72 °F 71 °F  
Max Temperature 87 °F 83 °F 108 °F (1936)
Min Temperature 57 °F 60 °F 42 °F (1928)
Degree Days  
Heating Degree Days 0 1  
Month to date heating degree days 0 2  
Since 1 June heating degree days 13 32  
Since 1 July heating degree days 0 5  
Cooling Degree Days 7 7  
Month to date cooling degree days 236 192  
Year to date cooling degree days 979 737  
Since 1 June cooling degree days 913 673  
Growing Degree Days 22 (Base 50)    
Moisture  
Dew Point 59 °F    
Average Humidity 63    
Maximum Humidity 94    
Minimum Humidity 29    
Precipitation  
Precipitation 0.00 in 0.10 in 1.06 in (1900)
Month to date precipitation 2.15 2.48  
Year to date precipitation 22.38 19.79  
Snow  
Snow 0.00 in 0.00 in 0.00 in ()
Month to date snowfall 0.0 0.0  
Since 1 June snowfall 0.0 0.0  
Since 1 July snowfall 0.0 0.0  
Snow Depth 0.00 in    
Sea Level Pressure  
Sea Level Pressure 29.86 in    
Wind  
Wind Speed 10 mph (NNW)    
Max Wind Speed 24 mph    
Max Gust Speed 31 mph    
Visibility 10 miles    
Events      
T = Trace of Precipitation, MM = Missing Value Source: NWS Daily Summary

Daily Weather History Graph

Daily Weather History Graph

Search for Another Location

Airport or City:

Astronomy

Aug. 24, 2011 Rise Set
Actual Time 6:41 AM CDT 8:13 PM CDT
Civil Twilight 6:12 AM CDT 8:42 PM CDT
Nautical Twilight 5:36 AM CDT 9:18 PM CDT
Astronomical Twilight 4:58 AM CDT 9:55 PM CDT
Moon 1:37 AM CDT (8/24) 5:07 PM CDT (8/24)
Length of Visible Light 14h 30m
Length of Day
13h 31m
Waning Crescent, 23% of the Moon is Illuminated
Aug 24
Waning Crescent
Aug 28
New
Sep 4
First Quarter
Sep 12
Full
Sep 20
Last Quarter

Hourly Weather History & Observations

Time (CDT) Temp. Heat Index Dew Point Humidity Pressure Visibility Wind Dir Wind Speed Gust Speed Precip Events Conditions
12:52 AM 69.1 °F - 64.0 °F 84% 29.71 in 10.0 mi Calm Calm - N/A   Clear
1:52 AM 66.9 °F - 64.0 °F 90% 29.71 in 10.0 mi Calm Calm - N/A   Clear
2:52 AM 66.9 °F - 64.0 °F 90% 29.72 in 10.0 mi Calm Calm - N/A   Clear
3:52 AM 66.9 °F - 64.0 °F 90% 29.72 in 10.0 mi Calm Calm - N/A   Clear
4:52 AM 66.0 °F - 64.0 °F 93% 29.73 in 10.0 mi Calm Calm - N/A   Clear
5:52 AM 66.9 °F - 64.9 °F 93% 29.74 in 8.0 mi NNW 5.8 mph - N/A   Clear
6:06 AM 68.0 °F - 66.2 °F 94% 29.77 in 8.0 mi NNW 4.6 mph - N/A   Partly Cloudy
6:52 AM 69.1 °F - 66.9 °F 93% 29.76 in 5.0 mi NW 6.9 mph - N/A   Clear
7:52 AM 72.0 °F - 69.1 °F 91% 29.80 in 9.0 mi NNW 11.5 mph - N/A   Clear
8:52 AM 77.0 °F - 60.1 °F 56% 29.83 in 10.0 mi North 13.8 mph 20.7 mph N/A   Clear
9:52 AM 78.8 °F - 59.0 °F 51% 29.89 in 10.0 mi NNW 11.5 mph - N/A   Clear
10:52 AM 81.0 °F 81.3 °F 59.0 °F 47% 29.90 in 10.0 mi North 16.1 mph - N/A   Clear
11:52 AM 82.9 °F 82.8 °F 59.0 °F 44% 29.92 in 10.0 mi North 15.0 mph 20.7 mph N/A   Clear
12:52 PM 84.2 °F 83.8 °F 59.0 °F 42% 29.94 in 10.0 mi NNW 16.1 mph 23.0 mph N/A   Clear
1:52 PM 84.9 °F 84.8 °F 60.1 °F 43% 29.92 in 10.0 mi NW 15.0 mph - N/A   Clear
2:52 PM 86.0 °F 84.9 °F 57.0 °F 37% 29.92 in 10.0 mi North 17.3 mph 25.3 mph N/A   Clear
3:52 PM 86.0 °F - 50.0 °F 29% 29.91 in 10.0 mi NNW 19.6 mph 26.5 mph N/A   Clear
4:52 PM 86.0 °F - 51.1 °F 30% 29.91 in 10.0 mi NNW 19.6 mph - N/A   Clear
5:52 PM 84.9 °F - 52.0 °F 32% 29.92 in 10.0 mi North 15.0 mph - N/A   Clear
6:52 PM 82.0 °F - 52.0 °F 35% 29.93 in 10.0 mi North 15.0 mph 19.6 mph N/A   Clear
7:52 PM 75.0 °F - 53.1 °F 46% 29.94 in 10.0 mi NNW 5.8 mph - N/A   Clear
8:52 PM 69.8 °F - 53.6 °F 56% 29.97 in 10.0 mi NNW 6.9 mph - N/A   Clear
9:52 PM 71.1 °F - 53.1 °F 53% 29.97 in 10.0 mi North 4.6 mph - N/A   Clear
10:52 PM 59.0 °F - 54.0 °F 83% 29.99 in 10.0 mi West 4.6 mph - N/A   Clear
11:52 PM 60.1 °F - 54.0 °F 80% 30.00 in 10.0 mi NW 3.5 mph - N/A   Clear